TimeEST,TemperatureF,Dew PointF,Humidity,Sea Level PressureIn,VisibilityMPH,Wind Direction,Wind SpeedMPH,Gust SpeedMPH,PrecipitationIn,Events,Conditions,WindDirDegrees,DateUTC
12:53 AM,39.0,27.0,62,30.17,10.0,West,11.5,20.7,0.00,,Overcast,270,2013-01-10 05:53:00
1:53 AM,39.9,25.0,55,30.20,10.0,West,10.4,18.4,N/A,,Overcast,280,2013-01-10 06:53:00
2:53 AM,39.9,23.0,51,30.25,10.0,NW,16.1,20.7,N/A,,Overcast,310,2013-01-10 07:53:00
3:53 AM,39.0,19.9,46,30.27,10.0,WNW,26.5,40.3,N/A,,Clear,300,2013-01-10 08:53:00
4:53 AM,37.0,21.0,52,30.30,10.0,WNW,9.2,-,N/A,,Clear,300,2013-01-10 09:53:00
5:53 AM,36.0,19.9,52,30.35,10.0,NNW,5.8,-,N/A,,Partly Cloudy,330,2013-01-10 10:53:00
6:53 AM,30.9,19.9,64,30.40,10.0,NW,5.8,-,N/A,,Mostly Cloudy,320,2013-01-10 11:53:00
7:53 AM,32.0,19.9,61,30.43,10.0,North,3.5,-,N/A,,Mostly Cloudy,360,2013-01-10 12:53:00
8:53 AM,34.0,21.0,59,30.45,10.0,NW,8.1,-,N/A,,Clear,310,2013-01-10 13:53:00
9:53 AM,37.9,21.9,53,30.48,10.0,WNW,11.5,-,N/A,,Clear,290,2013-01-10 14:53:00
10:53 AM,39.9,21.0,47,30.50,10.0,NW,10.4,-,N/A,,Clear,320,2013-01-10 15:53:00
11:53 AM,39.9,21.0,47,30.47,10.0,NNW,10.4,-,N/A,,Clear,330,2013-01-10 16:53:00
12:53 PM,41.0,21.0,45,30.47,10.0,NNW,9.2,17.3,N/A,,Clear,340,2013-01-10 17:53:00
1:53 PM,42.1,21.0,43,30.48,10.0,NW,6.9,-,N/A,,Clear,310,2013-01-10 18:53:00
2:53 PM,41.0,21.0,45,30.50,10.0,NW,15.0,20.7,N/A,,Clear,310,2013-01-10 19:53:00
3:53 PM,41.0,19.9,43,30.52,10.0,North,5.8,-,N/A,,Clear,350,2013-01-10 20:53:00
4:53 PM,39.0,19.9,46,30.53,10.0,NNW,5.8,-,N/A,,Clear,330,2013-01-10 21:53:00
5:53 PM,35.1,19.9,54,30.54,10.0,North,5.8,-,N/A,,Clear,360,2013-01-10 22:53:00
6:53 PM,28.9,19.9,69,30.56,10.0,Calm,Calm,-,N/A,,Clear,0,2013-01-10 23:53:00
7:53 PM,25.0,19.0,78,30.58,10.0,Calm,Calm,-,N/A,,Clear,0,2013-01-11 00:53:00
8:53 PM,23.0,19.0,85,30.59,10.0,Calm,Calm,-,N/A,,Clear,0,2013-01-11 01:53:00
9:53 PM,19.9,18.0,92,30.59,10.0,Calm,Calm,-,N/A,,Clear,0,2013-01-11 02:53:00
10:53 PM,19.9,17.1,89,30.59,10.0,Calm,Calm,-,N/A,,Clear,0,2013-01-11 03:53:00
11:53 PM,19.0,15.1,85,30.60,10.0,Calm,Calm,-,N/A,,Clear,0,2013-01-11 04:53:00